Hourly Data Report for September 08, 2017

All times are specified in Local Standard Time (LST). Add 1 hour to adjust for Daylight Saving Time where and when it is observed.

OTTAWA INTL A
ONTARIO

45°19'00.000" N
75°40'00.000" W
114.90 m
6106001
71628
YOW

Download Data

Hourly Data (September 2017)
Hourly Data Report for September 8, 2017
Temp Definition
°C
Dew Point Temp Definition
°C
Rel Hum Definition
%
Wind Dir Definition
10's deg

Wind Spd Definition
km/h
Visibility Definition
km
Stn Press Definition
kPa
Hmdx Definition


Wind Chill Definition


Weather Definition


TIME
00:00 Legend Double Dagger 10.5 9.8 95 21 11 24.1 99.70     LegendNANA
01:00 Legend Double Dagger 10.1 9.6 97 22 9 24.1 99.76     Mostly Cloudy
02:00 Legend Double Dagger 10.5 10.0 97 25 12 12.9 99.83     LegendNANA
03:00 Legend Double Dagger 11.6 10.7 95 28 16 12.9 99.84     LegendNANA
04:00 Legend Double Dagger 11.0 10.2 94 28 13 12.9 99.89     Cloudy
05:00 Legend Double Dagger 9.8 9.2 96 26 13 12.9 99.98     LegendNANA
06:00 Legend Double Dagger 8.6 8.1 97 24 9 24.1 100.07     LegendNANA
07:00 Legend Double Dagger 10.6 9.8 94 23 9 24.1 100.15     Mostly Cloudy
08:00 Legend Double Dagger 11.4 9.7 89 30 16 24.1 100.20     LegendNANA
09:00 Legend Double Dagger 11.9 9.8 87 26 12 24.1 100.27     LegendNANA
10:00 Legend Double Dagger 12.0 10.5 91 27 10 16.1 100.32     Rain
11:00 Legend Double Dagger 14.1 11.2 83 28 14 24.1 100.36     LegendNANA
12:00 Legend Double Dagger 13.9 12.2 89 34 16 24.1 100.39     LegendNANA
13:00 Legend Double Dagger 15.1 11.5 79 28 26 24.1 100.43     Mostly Cloudy
14:00 Legend Double Dagger 14.1 9.9 75 30 26 24.1 100.49     LegendNANA
15:00 Legend Double Dagger 15.4 9.7 69 30 26 24.1 100.54     LegendNANA
16:00 Legend Double Dagger 14.6 9.5 71 34 18 24.1 100.61     Mostly Cloudy
17:00 Legend Double Dagger 13.2 10.4 83 33 25 24.1 100.68     LegendNANA
18:00 Legend Double Dagger 12.2 8.8 80 32 32 24.1 100.76     LegendNANA
19:00 Legend Double Dagger 11.8 8.3 79 32 24 24.1 100.84     Mostly Cloudy
20:00 Legend Double Dagger 11.4 8.0 80 32 23 24.1 100.91     LegendNANA
21:00 Legend Double Dagger 11.4 7.7 77 33 28 24.1 100.93     LegendNANA
22:00 Legend Double Dagger 11.2 7.4 77 31 18 24.1 100.98     Mostly Cloudy
23:00 Legend Double Dagger 11.2 7.1 75 32 18 24.1 101.02     LegendNANA

Notes on Data Quality.

Legend

  • E = Estimated
  • M = Missing
  • NA = Not Available
  • ‡ = Partner data that is not subject to review by the National Climate Archives
Date modified: